Time,TemperatureF,DewpointF,PressureIn,WindDirection,WindDirectionDegrees,WindSpeedMPH,WindSpeedGustMPH,Humidity,HourlyPrecipIn,Conditions,Clouds,dailyrainin,SoftwareType,DateUTC
2014-08-29 00:01:00,75.9,70.4,30.00,SSW,196,0.0,0.0,83,0.00,,---,0.00,VWS V13.01,2014-08-29 05:01:00,
2014-08-29 00:06:00,75.9,70.4,30.00,SSW,196,0.0,0.0,83,0.00,,---,0.00,VWS V13.01,2014-08-29 05:06:00,
2014-08-29 00:11:00,75.8,70.3,30.00,SSW,196,0.0,0.0,83,0.00,,---,0.00,VWS V13.01,2014-08-29 05:11:00,
2014-08-29 00:16:00,75.7,70.2,30.00,SSW,196,0.0,0.0,83,0.00,,---,0.00,VWS V13.01,2014-08-29 05:16:00,
2014-08-29 00:21:00,75.7,70.5,30.00,SSW,196,0.0,0.0,84,0.00,,---,0.00,VWS V13.01,2014-08-29 05:21:00,
2014-08-29 00:26:00,75.6,70.4,30.00,SSW,196,0.0,0.0,84,0.00,,---,0.00,VWS V13.01,2014-08-29 05:26:00,
2014-08-29 00:31:00,75.6,70.4,30.00,SSW,196,0.0,0.0,84,0.00,,---,0.00,VWS V13.01,2014-08-29 05:31:00,
2014-08-29 00:36:00,75.5,70.3,30.00,SSW,196,0.0,0.0,84,0.00,,---,0.00,VWS V13.01,2014-08-29 05:36:00,
2014-08-29 00:41:00,75.5,70.3,30.00,SSW,196,0.0,0.0,84,0.00,,---,0.00,VWS V13.01,2014-08-29 05:41:00,
2014-08-29 00:46:00,75.4,70.2,29.99,SSW,196,0.0,0.0,84,0.00,,---,0.00,VWS V13.01,2014-08-29 05:46:00,
2014-08-29 00:51:00,75.3,70.1,29.99,SSW,196,0.0,0.0,84,0.00,,---,0.00,VWS V13.01,2014-08-29 05:51:00,
2014-08-29 00:56:00,75.2,70.0,29.99,SSW,196,0.0,0.0,84,0.00,,---,0.00,VWS V13.01,2014-08-29 05:56:00,
2014-08-29 01:01:00,75.2,70.0,29.99,SSW,196,0.0,0.0,84,0.00,,---,0.00,VWS V13.01,2014-08-29 06:01:00,
2014-08-29 01:06:00,75.1,69.9,29.99,SSW,196,0.0,0.0,84,0.00,,---,0.00,VWS V13.01,2014-08-29 06:06:00,
2014-08-29 01:11:00,75.0,69.8,29.99,SSW,196,0.0,0.0,84,0.00,,---,0.00,VWS V13.01,2014-08-29 06:11:00,
2014-08-29 01:16:00,74.9,70.1,30.00,SSW,196,0.0,0.0,85,0.00,,---,0.00,VWS V13.01,2014-08-29 06:16:00,
2014-08-29 01:21:00,74.8,70.0,29.99,SSW,196,0.0,0.0,85,0.00,,---,0.00,VWS V13.01,2014-08-29 06:21:00,
2014-08-29 01:26:00,74.8,70.0,29.99,SSW,196,0.0,0.0,85,0.00,,---,0.00,VWS V13.01,2014-08-29 06:26:00,
2014-08-29 01:31:00,74.8,70.0,29.99,SSW,196,0.0,0.0,85,0.00,,---,0.00,VWS V13.01,2014-08-29 06:31:00,
2014-08-29 01:36:00,74.8,70.3,29.99,SSW,196,0.0,1.0,86,0.00,,---,0.00,VWS V13.01,2014-08-29 06:36:00,
2014-08-29 01:41:00,74.8,70.3,29.99,SSW,196,0.0,0.0,86,0.00,,---,0.00,VWS V13.01,2014-08-29 06:41:00,
2014-08-29 01:46:00,74.8,70.7,29.99,SSW,196,0.0,1.0,87,0.00,,---,0.00,VWS V13.01,2014-08-29 06:46:00,
2014-08-29 01:51:00,74.8,70.7,29.99,SSW,196,0.0,0.0,87,0.00,,---,0.00,VWS V13.01,2014-08-29 06:51:00,
2014-08-29 01:56:00,74.7,70.6,29.98,SSW,196,0.0,0.0,87,0.00,,---,0.00,VWS V13.01,2014-08-29 06:56:00,
2014-08-29 02:01:00,74.6,70.5,29.99,East,82,0.0,1.0,87,0.00,,---,0.00,VWS V13.01,2014-08-29 07:01:00,
2014-08-29 02:06:00,74.6,70.5,29.98,East,82,0.0,3.0,87,0.00,,---,0.00,VWS V13.01,2014-08-29 07:06:00,
2014-08-29 02:11:00,74.5,70.4,29.98,East,82,0.0,0.0,87,0.00,,---,0.00,VWS V13.01,2014-08-29 07:11:00,
2014-08-29 02:16:00,74.4,70.3,29.99,East,82,0.0,2.0,87,0.00,,---,0.00,VWS V13.01,2014-08-29 07:16:00,
2014-08-29 02:21:00,74.3,70.2,29.99,East,82,0.0,0.0,87,0.00,,---,0.00,VWS V13.01,2014-08-29 07:21:00,
2014-08-29 02:26:00,74.2,70.1,29.99,East,82,0.0,1.0,87,0.00,,---,0.00,VWS V13.01,2014-08-29 07:26:00,
2014-08-29 02:31:00,74.1,70.0,29.99,East,82,0.0,0.0,87,0.00,,---,0.00,VWS V13.01,2014-08-29 07:31:00,
2014-08-29 02:36:00,74.0,70.2,29.99,East,82,0.0,3.0,88,0.00,,---,0.00,VWS V13.01,2014-08-29 07:36:00,
2014-08-29 02:41:00,73.8,69.7,29.99,East,82,0.0,0.0,87,0.00,,---,0.00,VWS V13.01,2014-08-29 07:41:00,
2014-08-29 02:46:00,73.7,69.6,29.99,East,82,0.0,1.0,87,0.00,,---,0.00,VWS V13.01,2014-08-29 07:46:00,
2014-08-29 02:51:00,73.6,69.5,29.99,East,82,0.0,0.0,87,0.00,,---,0.00,VWS V13.01,2014-08-29 07:51:00,
2014-08-29 02:56:00,73.5,69.7,29.99,East,82,0.0,1.0,88,0.00,,---,0.00,VWS V13.01,2014-08-29 07:56:00,
2014-08-29 03:01:00,73.4,69.6,29.99,East,82,0.0,0.0,88,0.00,,---,0.00,VWS V13.01,2014-08-29 08:01:00,
2014-08-29 03:06:00,73.3,69.5,29.98,East,82,0.0,0.0,88,0.00,,---,0.00,VWS V13.01,2014-08-29 08:06:00,
2014-08-29 03:11:00,73.2,69.4,29.98,East,82,0.0,0.0,88,0.00,,---,0.00,VWS V13.01,2014-08-29 08:11:00,
2014-08-29 03:16:00,73.1,69.3,29.98,East,82,0.0,1.0,88,0.00,,---,0.00,VWS V13.01,2014-08-29 08:16:00,
2014-08-29 03:21:00,73.1,69.3,29.98,East,82,0.0,0.0,88,0.00,,---,0.00,VWS V13.01,2014-08-29 08:21:00,
2014-08-29 03:26:00,73.0,69.2,29.98,NNE,21,0.0,4.0,88,0.00,,---,0.00,VWS V13.01,2014-08-29 08:26:00,
2014-08-29 03:31:00,73.0,69.2,29.98,NNE,21,0.0,0.0,88,0.00,,---,0.00,VWS V13.01,2014-08-29 08:31:00,
2014-08-29 03:36:00,72.9,69.5,29.98,NNE,21,0.0,3.0,89,0.00,,---,0.00,VWS V13.01,2014-08-29 08:36:00,
2014-08-29 03:41:00,72.9,69.5,29.98,NNE,21,0.0,0.0,89,0.00,,---,0.00,VWS V13.01,2014-08-29 08:41:00,
2014-08-29 03:46:00,72.8,69.4,29.98,NNE,21,0.0,4.0,89,0.00,,---,0.00,VWS V13.01,2014-08-29 08:46:00,
2014-08-29 03:51:00,72.8,69.4,29.98,NNE,21,0.0,0.0,89,0.00,,---,0.00,VWS V13.01,2014-08-29 08:51:00,
2014-08-29 03:56:00,72.7,69.3,29.98,NNE,21,0.0,1.0,89,0.00,,---,0.00,VWS V13.01,2014-08-29 08:56:00,
2014-08-29 04:01:00,72.6,69.2,29.98,NNE,21,0.0,0.0,89,0.00,,---,0.00,VWS V13.01,2014-08-29 09:01:00,
2014-08-29 04:06:00,72.5,69.1,29.98,NNE,20,0.0,4.0,89,0.00,,---,0.00,VWS V13.01,2014-08-29 09:06:00,
2014-08-29 04:11:00,72.5,69.4,29.98,NNE,20,0.0,4.0,90,0.00,,---,0.00,VWS V13.01,2014-08-29 09:11:00,
2014-08-29 04:16:00,72.4,69.3,29.98,NNE,20,0.0,0.0,90,0.00,,---,0.00,VWS V13.01,2014-08-29 09:16:00,
2014-08-29 04:21:00,72.4,69.3,29.98,NNE,20,0.0,0.0,90,0.00,,---,0.00,VWS V13.01,2014-08-29 09:21:00,
2014-08-29 04:26:00,72.4,69.3,29.99,NNE,20,0.0,1.0,90,0.00,,---,0.00,VWS V13.01,2014-08-29 09:26:00,
2014-08-29 04:31:00,72.4,69.3,29.98,NNE,20,0.0,0.0,90,0.00,,---,0.00,VWS V13.01,2014-08-29 09:31:00,
2014-08-29 04:36:00,72.4,69.3,29.98,NNE,20,0.0,0.0,90,0.00,,---,0.00,VWS V13.01,2014-08-29 09:36:00,
2014-08-29 04:41:00,72.4,69.3,29.98,NNE,20,0.0,0.0,90,0.00,,---,0.00,VWS V13.01,2014-08-29 09:41:00,
2014-08-29 04:46:00,72.3,69.5,29.98,NNE,20,0.0,1.0,91,0.00,,---,0.00,VWS V13.01,2014-08-29 09:46:00,
2014-08-29 04:50:00,72.3,69.5,29.98,NNE,20,0.0,0.0,91,0.00,,---,0.00,VWS V13.01,2014-08-29 09:50:00,
2014-08-29 04:55:00,72.3,69.5,29.98,NNE,19,2.0,3.0,91,0.00,,---,0.00,VWS V13.01,2014-08-29 09:55:00,
2014-08-29 05:00:00,72.3,69.5,29.98,NNE,19,0.0,0.0,91,0.00,,---,0.00,VWS V13.01,2014-08-29 10:00:00,
2014-08-29 05:05:00,72.2,69.4,29.98,NNE,19,0.0,2.0,91,0.00,,---,0.00,VWS V13.01,2014-08-29 10:05:00,
2014-08-29 05:10:00,72.2,69.4,29.98,NNE,19,0.0,0.0,91,0.00,,---,0.00,VWS V13.01,2014-08-29 10:10:00,
2014-08-29 05:15:00,72.2,69.4,29.98,NNE,19,0.0,1.0,91,0.00,,---,0.00,VWS V13.01,2014-08-29 10:15:00,
2014-08-29 05:20:00,72.2,69.4,29.98,NNE,19,0.0,1.0,91,0.00,,---,0.00,VWS V13.01,2014-08-29 10:20:00,
2014-08-29 05:25:00,72.2,69.4,29.98,NNE,19,0.0,1.0,91,0.00,,---,0.00,VWS V13.01,2014-08-29 10:25:00,
2014-08-29 05:30:00,72.2,69.8,29.98,NNE,19,0.0,0.0,92,0.00,,---,0.00,VWS V13.01,2014-08-29 10:30:00,
2014-08-29 05:35:00,72.1,69.7,29.98,NNE,19,0.0,1.0,92,0.00,,---,0.00,VWS V13.01,2014-08-29 10:35:00,
2014-08-29 05:40:00,72.1,69.7,29.98,NNE,19,0.0,0.0,92,0.00,,---,0.00,VWS V13.01,2014-08-29 10:40:00,
2014-08-29 05:45:00,72.0,69.6,29.98,NNE,19,0.0,4.0,92,0.00,,---,0.00,VWS V13.01,2014-08-29 10:45:00,
2014-08-29 05:50:00,72.0,69.6,29.98,NNE,19,0.0,4.0,92,0.00,,---,0.00,VWS V13.01,2014-08-29 10:50:00,
2014-08-29 05:55:00,71.9,69.4,29.99,NNE,19,0.0,1.0,92,0.00,,---,0.00,VWS V13.01,2014-08-29 10:55:00,
2014-08-29 06:00:00,71.9,69.4,29.99,NNE,19,0.0,1.0,92,0.00,,---,0.00,VWS V13.01,2014-08-29 11:00:00,
2014-08-29 06:05:00,71.8,69.3,29.99,NNE,19,0.0,0.0,92,0.00,,---,0.00,VWS V13.01,2014-08-29 11:05:00,
2014-08-29 06:10:00,71.7,69.3,29.99,NNE,19,0.0,1.0,92,0.00,,---,0.00,VWS V13.01,2014-08-29 11:10:00,
2014-08-29 06:15:00,71.6,69.2,30.00,NNE,19,0.0,1.0,92,0.00,,---,0.00,VWS V13.01,2014-08-29 11:15:00,
2014-08-29 06:20:00,71.6,69.2,29.99,NNE,19,0.0,1.0,92,0.00,,---,0.00,VWS V13.01,2014-08-29 11:20:00,
2014-08-29 06:25:00,71.5,69.1,30.00,NNE,19,0.0,1.0,92,0.00,,---,0.00,VWS V13.01,2014-08-29 11:25:00,
2014-08-29 06:30:00,71.4,69.0,30.00,NNE,19,0.0,2.0,92,0.00,,---,0.00,VWS V13.01,2014-08-29 11:30:00,
2014-08-29 06:35:00,71.3,68.9,30.00,NNE,19,0.0,1.0,92,0.00,,---,0.00,VWS V13.01,2014-08-29 11:35:00,
2014-08-29 06:40:00,71.2,68.8,30.00,NNE,19,0.0,1.0,92,0.00,,---,0.00,VWS V13.01,2014-08-29 11:40:00,
2014-08-29 06:45:00,71.2,68.8,30.00,NNE,19,0.0,1.0,92,0.00,,---,0.00,VWS V13.01,2014-08-29 11:45:00,
2014-08-29 06:50:00,71.2,68.8,30.01,NNE,19,0.0,1.0,92,0.00,,---,0.00,VWS V13.01,2014-08-29 11:50:00,
2014-08-29 06:55:00,71.2,68.8,30.01,NNE,19,0.0,0.0,92,0.00,,---,0.00,VWS V13.01,2014-08-29 11:55:00,
2014-08-29 07:00:00,71.3,68.9,30.01,NNE,19,0.0,1.0,92,0.00,,---,0.00,VWS V13.01,2014-08-29 12:00:00,
2014-08-29 07:05:00,71.3,68.9,30.02,NNE,19,0.0,1.0,92,0.00,,---,0.00,VWS V13.01,2014-08-29 12:05:00,
2014-08-29 07:10:00,71.5,69.1,30.02,NNE,19,0.0,1.0,92,0.00,,---,0.00,VWS V13.01,2014-08-29 12:10:00,
2014-08-29 07:15:00,71.6,69.2,30.02,NNE,19,0.0,0.0,92,0.00,,---,0.00,VWS V13.01,2014-08-29 12:15:00,
2014-08-29 07:20:00,71.7,69.3,30.02,NNE,19,0.0,1.0,92,0.00,,---,0.00,VWS V13.01,2014-08-29 12:20:00,
2014-08-29 07:25:00,71.9,69.4,30.02,NNE,19,0.0,1.0,92,0.00,,---,0.00,VWS V13.01,2014-08-29 12:25:00,
2014-08-29 07:30:00,72.0,69.9,30.02,NNE,19,0.0,1.0,93,0.00,,---,0.00,VWS V13.01,2014-08-29 12:30:00,
2014-08-29 07:35:00,72.2,70.1,30.02,NNE,19,0.0,1.0,93,0.00,,---,0.00,VWS V13.01,2014-08-29 12:35:00,
2014-08-29 07:40:00,72.4,69.9,30.02,NNE,19,0.0,1.0,92,0.00,,---,0.00,VWS V13.01,2014-08-29 12:40:00,
2014-08-29 07:45:00,72.9,70.8,30.01,NNE,19,0.0,1.0,93,0.00,,---,0.00,VWS V13.01,2014-08-29 12:45:00,
2014-08-29 07:50:00,73.3,71.2,30.01,NE,52,0.0,5.0,93,0.00,,---,0.00,VWS V13.01,2014-08-29 12:50:00,
2014-08-29 07:55:00,73.8,71.7,30.01,NNE,31,0.0,6.0,93,0.00,,---,0.00,VWS V13.01,2014-08-29 12:55:00,
2014-08-29 08:00:00,74.4,71.9,30.01,ENE,59,0.0,6.0,92,0.00,,---,0.00,VWS V13.01,2014-08-29 13:00:00,
2014-08-29 08:05:00,74.9,72.4,30.01,ENE,68,0.0,5.0,92,0.00,,---,0.00,VWS V13.01,2014-08-29 13:05:00,
2014-08-29 08:10:00,75.5,72.7,30.01,ENE,63,0.0,5.0,91,0.00,,---,0.00,VWS V13.01,2014-08-29 13:10:00,
2014-08-29 08:15:00,76.0,73.2,30.01,ENE,78,0.0,5.0,91,0.00,,---,0.00,VWS V13.01,2014-08-29 13:15:00,
2014-08-29 08:20:00,76.8,73.7,30.01,ENE,74,0.0,5.0,90,0.00,,---,0.00,VWS V13.01,2014-08-29 13:20:00,
2014-08-29 08:25:00,77.5,74.3,30.02,NNE,30,0.0,4.0,90,0.00,,---,0.00,VWS V13.01,2014-08-29 13:25:00,
2014-08-29 08:30:00,78.2,74.4,30.02,NNE,28,0.0,4.0,88,0.00,,---,0.00,VWS V13.01,2014-08-29 13:30:00,
2014-08-29 08:35:00,78.9,74.7,30.01,East,80,0.0,4.0,87,0.00,,---,0.00,VWS V13.01,2014-08-29 13:35:00,
2014-08-29 08:40:00,79.6,75.1,30.02,ENE,73,0.0,4.0,86,0.00,,---,0.00,VWS V13.01,2014-08-29 13:40:00,
2014-08-29 08:45:00,80.3,75.0,30.02,NE,45,0.0,6.0,84,0.00,,---,0.00,VWS V13.01,2014-08-29 13:45:00,
2014-08-29 08:50:00,81.0,75.3,30.02,NNE,15,3.0,6.0,83,0.00,,---,0.00,VWS V13.01,2014-08-29 13:50:00,
2014-08-29 08:55:00,81.7,75.3,30.03,ENE,62,2.0,7.0,81,0.00,,---,0.00,VWS V13.01,2014-08-29 13:55:00,
2014-08-29 09:00:00,82.3,75.1,30.02,NNE,25,1.0,7.0,79,0.00,,---,0.00,VWS V13.01,2014-08-29 14:00:00,
2014-08-29 09:05:00,82.9,75.3,30.03,East,98,0.0,6.0,78,0.00,,---,0.00,VWS V13.01,2014-08-29 14:05:00,
2014-08-29 09:10:00,83.6,75.6,30.03,ENE,77,0.0,6.0,77,0.00,,---,0.00,VWS V13.01,2014-08-29 14:10:00,
2014-08-29 09:15:00,84.2,75.8,30.03,ENE,70,0.0,7.0,76,0.00,,---,0.00,VWS V13.01,2014-08-29 14:15:00,
2014-08-29 09:20:00,84.7,75.5,30.03,ESE,118,0.0,7.0,74,0.00,,---,0.00,VWS V13.01,2014-08-29 14:20:00,
2014-08-29 09:25:00,85.2,75.2,30.03,East,100,1.0,6.0,72,0.00,,---,0.00,VWS V13.01,2014-08-29 14:25:00,
2014-08-29 09:30:00,85.8,74.9,30.03,NE,42,3.0,6.0,70,0.00,,---,0.00,VWS V13.01,2014-08-29 14:30:00,
2014-08-29 09:35:00,86.1,74.8,30.03,East,100,0.0,7.0,69,0.00,,---,0.00,VWS V13.01,2014-08-29 14:35:00,
2014-08-29 09:40:00,86.5,73.3,30.03,East,96,4.0,10.0,65,0.00,,---,0.00,VWS V13.01,2014-08-29 14:40:00,
2014-08-29 09:45:00,86.8,73.6,30.03,East,80,0.0,6.0,65,0.00,,---,0.00,VWS V13.01,2014-08-29 14:45:00,
2014-08-29 09:50:00,87.2,73.6,30.03,ESE,106,4.0,6.0,64,0.00,,---,0.00,VWS V13.01,2014-08-29 14:50:00,
2014-08-29 09:55:00,87.4,73.3,30.04,East,95,4.0,4.0,63,0.00,,---,0.00,VWS V13.01,2014-08-29 14:55:00,
2014-08-29 10:00:00,87.7,73.6,30.04,East,92,0.0,4.0,63,0.00,,---,0.00,VWS V13.01,2014-08-29 15:00:00,
2014-08-29 10:05:00,88.2,73.6,30.04,East,93,0.0,6.0,62,0.00,,---,0.00,VWS V13.01,2014-08-29 15:05:00,
2014-08-29 10:10:00,88.5,72.8,30.04,ESE,103,0.0,7.0,60,0.00,,---,0.00,VWS V13.01,2014-08-29 15:10:00,
2014-08-29 10:15:00,88.7,73.5,30.03,ESE,103,0.0,7.0,61,0.00,,---,0.00,VWS V13.01,2014-08-29 15:15:00,
2014-08-29 10:20:00,89.1,73.9,30.04,ESE,105,0.0,7.0,61,0.00,,---,0.00,VWS V13.01,2014-08-29 15:20:00,
2014-08-29 10:25:00,89.4,73.2,30.03,ESE,103,6.0,6.0,59,0.00,,---,0.00,VWS V13.01,2014-08-29 15:25:00,
2014-08-29 10:30:00,89.6,72.4,30.03,NNE,26,6.0,9.0,57,0.00,,---,0.00,VWS V13.01,2014-08-29 15:30:00,
2014-08-29 10:35:00,89.7,73.0,30.03,East,98,2.0,8.0,58,0.00,,---,0.00,VWS V13.01,2014-08-29 15:35:00,
2014-08-29 10:40:00,89.8,72.6,30.03,NNE,17,6.0,8.0,57,0.00,,---,0.00,VWS V13.01,2014-08-29 15:40:00,
2014-08-29 10:45:00,90.0,72.2,30.03,ENE,57,4.0,6.0,56,0.00,,---,0.00,VWS V13.01,2014-08-29 15:45:00,
2014-08-29 10:50:00,90.2,71.9,30.03,NE,45,2.0,7.0,55,0.00,,---,0.00,VWS V13.01,2014-08-29 15:50:00,
2014-08-29 10:55:00,90.2,72.9,30.03,East,82,0.0,4.0,57,0.00,,---,0.00,VWS V13.01,2014-08-29 15:55:00,
2014-08-29 11:00:00,90.6,72.2,30.03,ESE,107,0.0,4.0,55,0.00,,---,0.00,VWS V13.01,2014-08-29 16:00:00,
2014-08-29 11:05:00,91.2,74.4,30.03,SE,138,0.0,3.0,58,0.00,,---,0.00,VWS V13.01,2014-08-29 16:05:00,
2014-08-29 11:10:00,91.8,73.3,30.02,East,89,4.0,5.0,55,0.00,,---,0.00,VWS V13.01,2014-08-29 16:10:00,
2014-08-29 11:15:00,92.2,72.6,30.03,ENE,78,4.0,6.0,53,0.00,,---,0.00,VWS V13.01,2014-08-29 16:15:00,
2014-08-29 11:20:00,92.5,72.3,30.03,ENE,72,0.0,6.0,52,0.00,,---,0.00,VWS V13.01,2014-08-29 16:20:00,
2014-08-29 11:25:00,92.9,74.9,30.03,South,187,1.0,6.0,56,0.00,,---,0.00,VWS V13.01,2014-08-29 16:25:00,
2014-08-29 11:30:00,93.1,73.4,30.02,East,96,0.0,7.0,53,0.00,,---,0.00,VWS V13.01,2014-08-29 16:30:00,
2014-08-29 11:35:00,93.4,73.7,30.02,East,89,0.0,5.0,53,0.00,,---,0.00,VWS V13.01,2014-08-29 16:35:00,
2014-08-29 11:40:00,93.9,74.2,30.02,East,94,0.0,5.0,53,0.00,,---,0.00,VWS V13.01,2014-08-29 16:40:00,
2014-08-29 11:45:00,94.4,74.1,30.02,SSE,159,0.0,5.0,52,0.00,,---,0.00,VWS V13.01,2014-08-29 16:45:00,
2014-08-29 11:50:00,94.8,75.0,30.02,East,99,2.0,5.0,53,0.00,,---,0.00,VWS V13.01,2014-08-29 16:50:00,
2014-08-29 11:55:00,95.1,74.1,30.01,ESE,113,0.0,7.0,51,0.00,,---,0.00,VWS V13.01,2014-08-29 16:55:00,
2014-08-29 12:00:00,95.3,74.9,30.01,South,171,0.0,7.0,52,0.00,,---,0.00,VWS V13.01,2014-08-29 17:00:00,
2014-08-29 12:05:00,95.3,74.3,30.01,East,84,1.0,9.0,51,0.00,,---,0.00,VWS V13.01,2014-08-29 17:05:00,
2014-08-29 12:10:00,95.5,75.1,30.01,East,99,0.0,11.0,52,0.00,,---,0.00,VWS V13.01,2014-08-29 17:10:00,
2014-08-29 12:15:00,95.8,74.2,30.01,East,88,0.0,4.0,50,0.00,,---,0.00,VWS V13.01,2014-08-29 17:15:00,
2014-08-29 12:20:00,95.8,74.8,30.01,East,96,5.0,10.0,51,0.00,,---,0.00,VWS V13.01,2014-08-29 17:20:00,
2014-08-29 12:25:00,95.9,76.0,30.01,ESE,107,0.0,5.0,53,0.00,,---,0.00,VWS V13.01,2014-08-29 17:25:00,
2014-08-29 12:30:00,96.2,76.3,30.01,SSW,210,1.0,5.0,53,0.00,,---,0.00,VWS V13.01,2014-08-29 17:30:00,
2014-08-29 12:35:00,96.3,76.4,30.01,ENE,69,0.0,6.0,53,0.00,,---,0.00,VWS V13.01,2014-08-29 17:35:00,
2014-08-29 12:40:00,96.2,75.2,30.00,ENE,72,0.0,6.0,51,0.00,,---,0.00,VWS V13.01,2014-08-29 17:40:00,
2014-08-29 12:45:00,96.1,76.2,30.00,ESE,112,0.0,3.0,53,0.00,,---,0.00,VWS V13.01,2014-08-29 17:45:00,
2014-08-29 12:50:00,96.4,75.3,30.00,East,88,0.0,3.0,51,0.00,,---,0.00,VWS V13.01,2014-08-29 17:50:00,
2014-08-29 12:55:00,96.6,74.9,29.99,East,92,1.0,10.0,50,0.00,,---,0.00,VWS V13.01,2014-08-29 17:55:00,
2014-08-29 13:00:00,96.6,76.1,29.99,East,80,3.0,10.0,52,0.00,,---,0.00,VWS V13.01,2014-08-29 18:00:00,
2014-08-29 13:05:00,96.5,75.4,29.99,East,98,0.0,3.0,51,0.00,,---,0.00,VWS V13.01,2014-08-29 18:05:00,
2014-08-29 13:10:00,96.6,76.1,29.98,East,80,0.0,3.0,52,0.00,,---,0.00,VWS V13.01,2014-08-29 18:10:00,
2014-08-29 13:15:00,96.5,75.4,29.99,East,100,0.0,5.0,51,0.00,,---,0.00,VWS V13.01,2014-08-29 18:15:00,
2014-08-29 13:20:00,96.6,76.1,29.98,SW,234,0.0,5.0,52,0.00,,---,0.00,VWS V13.01,2014-08-29 18:20:00,
2014-08-29 13:25:00,96.9,76.4,29.99,ESE,113,0.0,3.0,52,0.00,,---,0.00,VWS V13.01,2014-08-29 18:25:00,
2014-08-29 13:30:00,97.0,75.9,29.98,WSW,241,0.0,4.0,51,0.00,,---,0.00,VWS V13.01,2014-08-29 18:30:00,
2014-08-29 13:35:00,97.0,77.0,29.98,South,173,0.0,5.0,53,0.00,,---,0.00,VWS V13.01,2014-08-29 18:35:00,
2014-08-29 13:40:00,97.1,76.0,29.97,WSW,252,0.0,5.0,51,0.00,,---,0.00,VWS V13.01,2014-08-29 18:40:00,
2014-08-29 13:45:00,97.2,75.5,29.98,East,92,0.0,1.0,50,0.00,,---,0.00,VWS V13.01,2014-08-29 18:45:00,
2014-08-29 13:50:00,97.0,75.9,29.97,ENE,61,0.0,4.0,51,0.00,,---,0.00,VWS V13.01,2014-08-29 18:50:00,
2014-08-29 13:55:00,96.9,76.4,29.97,East,95,0.0,8.0,52,0.00,,---,0.00,VWS V13.01,2014-08-29 18:55:00,
2014-08-29 14:00:00,96.8,75.7,29.97,WSW,239,0.0,8.0,51,0.00,,---,0.00,VWS V13.01,2014-08-29 19:00:00,
2014-08-29 14:05:00,96.7,76.2,29.97,WSW,239,0.0,0.0,52,0.00,,---,0.00,VWS V13.01,2014-08-29 19:05:00,
2014-08-29 14:10:00,96.4,76.5,29.97,WSW,239,0.0,0.0,53,0.00,,---,0.00,VWS V13.01,2014-08-29 19:10:00,
2014-08-29 14:15:00,96.0,75.6,29.97,SE,125,0.0,1.0,52,0.00,,---,0.00,VWS V13.01,2014-08-29 19:15:00,
2014-08-29 14:20:00,95.6,76.3,29.96,East,92,0.0,3.0,54,0.00,,---,0.00,VWS V13.01,2014-08-29 19:20:00,
2014-08-29 14:25:00,95.4,76.7,29.96,East,97,0.0,3.0,55,0.00,,---,0.00,VWS V13.01,2014-08-29 19:25:00,
2014-08-29 14:30:00,95.1,76.9,29.97,East,96,0.0,3.0,56,0.00,,---,0.00,VWS V13.01,2014-08-29 19:30:00,
2014-08-29 14:35:00,94.7,77.6,29.97,SSE,161,0.0,3.0,58,0.00,,---,0.00,VWS V13.01,2014-08-29 19:35:00,
2014-08-29 14:40:00,93.9,78.9,29.97,SSW,208,0.0,11.0,62,0.00,,---,0.00,VWS V13.01,2014-08-29 19:40:00,
2014-08-29 14:45:00,92.8,77.9,29.97,SW,224,0.0,1.0,62,0.00,,---,0.00,VWS V13.01,2014-08-29 19:45:00,
2014-08-29 14:50:00,91.3,76.9,29.98,SSE,163,0.0,4.0,63,0.00,,---,0.00,VWS V13.01,2014-08-29 19:50:00,
2014-08-29 14:55:00,90.2,76.4,29.98,ESE,119,0.0,5.0,64,0.00,,---,0.00,VWS V13.01,2014-08-29 19:55:00,
2014-08-29 15:00:00,89.7,75.9,29.98,ESE,117,0.0,5.0,64,0.00,,---,0.00,VWS V13.01,2014-08-29 20:00:00,
2014-08-29 15:05:00,89.3,76.0,29.98,ESE,112,0.0,5.0,65,0.00,,---,0.00,VWS V13.01,2014-08-29 20:05:00,
2014-08-29 15:10:00,89.1,76.3,29.97,WSW,244,0.0,5.0,66,0.00,,---,0.00,VWS V13.01,2014-08-29 20:10:00,
2014-08-29 15:15:00,89.0,76.2,29.97,SW,229,0.0,0.0,66,0.00,,---,0.00,VWS V13.01,2014-08-29 20:15:00,
2014-08-29 15:20:00,88.9,76.1,29.97,SE,126,0.0,0.0,66,0.00,,---,0.00,VWS V13.01,2014-08-29 20:20:00,
2014-08-29 15:25:00,88.9,76.1,29.96,SE,126,0.0,0.0,66,0.00,,---,0.00,VWS V13.01,2014-08-29 20:25:00,